NOAA 16 DEB, 41156

Orbit data source: Space-Track

NOAA 16 DEB, 41156 is space debris in SSO originally from a launch on Thu, 21 Sep 2000 UTC launched from the Air Force Western Test Range (AFWTR). Debris objects in space refer to the collection of defunct objects orbiting the Earth. Examples of debris include non-operational satellites, rocket bodies, and fragments generated from explosions, collisions, or faulty payload assembly.

Loading next visibility...
Identifier
41156, 2000-055CP
Orbit
SSO
Country
Flag of USUS
Related business
Manufacturer
Unknown
Mission
Spacecraft
Bus & Motor
Unknown
Mass
Unknown
Launch date (UTC)
2000-09-21 (26 years ago)
Launch vehicle
Unknown
Launch site
Air Force Western Test Range (AFWTR)
Object type
Payload
Rocket body
Debris
Shape & HBR
Unknown shape, 0.1 m
Radar Cross Section
Medium (>0.1 m² and <1 m²)

Expand to show TLE details & history
Last TLE update: 2 weeks ago

TLE from 2 weeks ago
0 NOAA 16 DEB
1 41156U 00055CP  26157.47631053  .00040124  00000-0  47483-2 0  9996
2 41156  98.9394  64.6765 0024401 349.3523  10.7168 14.84239402551185
Epoch: 2026-06-06T11:25Z
TLE epoch observation values (Epoch: 2026-06-06T11:25:53.229Z)
Latitude
-0.00006°
Longitude
-1.6866°
Altitude
602.198 km
Speed
7.568 km/s
True Right ascension
04h 18m 42s
True Declination
0° 00' 00"
Sunlit
Object was in daylight at epoch
Visualization orbit readout
Latitude
Unknown
Longitude
Unknown
Altitude
Unknown
Speed
Unknown
Apparent Right ascension
Unknown
Apparent Declination
Unknown
Sunlit
N/A
Visualization observer readout
Local Sidereal Time
21:44:35
Azimuth
Unknown
Elevation
Unknown
Doppler factor
Unknown
Orbital elements
Apogee altitude
630.118 km
Perigee altitude
596 km
Semi-major axis
6,991.196 km
Eccentricity
0.00244
Inclination
98.9394°
RAAN
64.6765°
Arg. of periapsis
349.3523°
True anomaly
10.76895°
Mean anomaly
10.7168°
Eccentric anomaly
10.74286°
Mean motion
3.71292 °/min
Orbital period
96.96 mins
BSTAR
0.0047483
Loading maneuver chart data...
Computing Atmospheric mass density...
Loading historical data...
Loading historical data...
Loading historical data...
Loading historical data...
Loading historical data...
Loading historical data...
Loading historical data...

Documentation

Showing up to 5 results
|